Abilene, TX

9:05 PM CDT on June 25, 2017 (GMT -0500)
Abilene Regional

Weather History for KABI - April, 2014

Change the Weather History Date:

Friday, April 4, 2014

  Actual Average Record
Temperature  
Mean Temperature 55 °F 62 °F  
Max Temperature 69 °F 74 °F 94 °F (1939)
Min Temperature 40 °F 49 °F 26 °F (1920)
Degree Days  
Heating Degree Days 10 6  
Month to date heating degree days 10 24  
Since 1 July heating degree days 2712 2455  
Cooling Degree Days 0 2  
Month to date cooling degree days 26 8  
Year to date cooling degree days 70 42  
Growing Degree Days 5 (Base 50)    
Moisture  
Dew Point 26 °F    
Average Humidity 41    
Maximum Humidity 65    
Minimum Humidity 16    
Precipitation  
Precipitation 0.00 in 0.04 in 0.68 in (1995)
Month to date precipitation 0.00 0.17  
Year to date precipitation 1.16 4.29  
Sea Level Pressure  
Sea Level Pressure 30.09 in    
Wind  
Wind Speed 10 mph (NE)    
Max Wind Speed 24 mph    
Max Gust Speed 30 mph    
Visibility 10 miles    
Events      
T = Trace of Precipitation, MM = Missing Value Source: NWS Daily Summary

Daily Weather History Graph

Daily Weather History Graph

Search for Another Location

Airport or City:

Trip Planner

Search our weather history database for the weather conditions in past years. The results will help you decide how hot, cold, wet, or windy it might be!

Date:

Astronomy

Apr. 04, 2014 Rise Set
Actual Time 7:22 AM CDT 8:00 PM CDT
Civil Twilight 6:58 AM CDT 8:25 PM CDT
Nautical Twilight 6:29 AM CDT 8:54 PM CDT
Astronomical Twilight 5:59 AM CDT 9:24 PM CDT
Moon 10:53 AM CDT (4/4) 12:09 AM CDT (4/4)
Length of Visible Light 13h 27m
Length of Day
12h 37m
Waxing Crescent, 25% of the Moon is Illuminated
Apr 4
Waxing Crescent
Apr 7
First Quarter
Apr 15
Full
Apr 22
Last Quarter
Apr 29
New

Hourly Weather History & Observations

Time (CDT) Temp. Windchill Dew Point Humidity Pressure Visibility Wind Dir Wind Speed Gust Speed Precip Events Conditions
12:52 AM 54.0 °F - 30.9 °F 41% 30.00 in 10.0 mi North 20.7 mph 28.8 mph N/A   Clear
1:52 AM 50.0 °F - 28.0 °F 43% 30.04 in 10.0 mi North 19.6 mph 27.6 mph N/A   Clear
2:52 AM 48.0 °F - 28.9 °F 48% 30.05 in 10.0 mi North 10.4 mph - N/A   Clear
3:52 AM 46.0 °F 39.9 °F 28.9 °F 51% 30.06 in 10.0 mi North 13.8 mph - N/A   Clear
4:52 AM 44.1 °F 39.0 °F 30.0 °F 58% 30.08 in 10.0 mi North 9.2 mph - N/A   Clear
5:52 AM 42.1 °F 39.2 °F 28.9 °F 60% 30.10 in 10.0 mi North 4.6 mph - N/A   Clear
6:52 AM 41.0 °F 37.1 °F 30.0 °F 65% 30.13 in 10.0 mi NNW 5.8 mph - N/A   Clear
7:52 AM 41.0 °F 35.2 °F 30.9 °F 67% 30.15 in 10.0 mi North 9.2 mph - N/A   Clear
8:52 AM 46.9 °F - 30.0 °F 52% 30.14 in 10.0 mi North 11.5 mph - N/A   Clear
9:52 AM 50.0 °F - 28.0 °F 43% 30.16 in 10.0 mi NNE 13.8 mph 21.9 mph N/A   Clear
10:52 AM 55.0 °F - 27.0 °F 34% 30.17 in 10.0 mi NNE 15.0 mph 23.0 mph N/A   Clear
11:52 AM 59.0 °F - 25.0 °F 27% 30.18 in 10.0 mi North 16.1 mph - N/A   Clear
12:52 PM 61.0 °F - 25.0 °F 25% 30.16 in 10.0 mi North 10.4 mph 18.4 mph N/A   Clear
1:52 PM 64.9 °F - 23.0 °F 20% 30.14 in 10.0 mi NNE 9.2 mph - N/A   Clear
2:52 PM 66.0 °F - 19.9 °F 17% 30.11 in 10.0 mi ENE 11.5 mph 17.3 mph N/A   Clear
3:52 PM 68.0 °F - 21.9 °F 17% 30.07 in 10.0 mi ENE 11.5 mph - N/A   Clear
4:52 PM 69.1 °F - 21.9 °F 17% 30.05 in 10.0 mi NE 9.2 mph - N/A   Clear
5:52 PM 66.9 °F - 21.9 °F 18% 30.04 in 10.0 mi East 11.5 mph - N/A   Clear
6:52 PM 64.9 °F - 21.0 °F 19% 30.05 in 10.0 mi East 6.9 mph - N/A   Clear
7:52 PM 63.0 °F - 21.0 °F 20% 30.05 in 10.0 mi ENE 6.9 mph - N/A   Clear
8:52 PM 60.1 °F - 21.9 °F 23% 30.04 in 10.0 mi East 8.1 mph - N/A   Clear
9:52 PM 55.0 °F - 21.9 °F 28% 30.06 in 10.0 mi East 6.9 mph - N/A   Clear
10:52 PM 54.0 °F - 24.1 °F 31% 30.07 in 10.0 mi East 8.1 mph - N/A   Clear
11:52 PM 52.0 °F - 25.0 °F 35% 30.06 in 10.0 mi ESE 9.2 mph - N/A   Clear